Wind_Speed
45 44 42 40 36 34 31 30 29 31 30 28 28 31 31 32 30 32 32 34 33 31 32 32 31 29 27 26 30 27 25 30 29 32 36 41 41 41 44 43 48 54 50 48 47 46 47
45 42 40 38 35 32 31 29 28 30 28 25 27 29 30 31 32 33 34 35 31 32 34 36 34 34 35 35 31 36 36 34 39 39 39 40 39 40 42 41 46 46 46 48 47 46 50
44 40 39 35 33 32 30 30 29 28 24 26 27 28 31 32 34 34 35 33 33 33 34 36 36 37 37 38 39 44 40 40 42 43 49 53 43 48 50 46 49 49 53 53 56 54 58
40 39 38 34 32 31 29 28 28 27 24 26 27 30 32 34 35 36 37 36 34 33 36 42 37 41 47 45 44 45 45 53 51 50 53 55 51 51 55 53 56 54 55 55 59 61 62
38 37 34 32 30 31 30 28 27 25 24 26 28 33 35 36 36 38 38 38 36 34 36 40 43 44 46 48 52 51 49 50 53 58 60 60 61 61 61 60 59 59 61 63 63 64 62
38 34 32 31 32 30 29 27 24 26 27 29 32 34 35 36 37 38 38 38 37 36 37 38 46 48 50 53 56 59 63 65 64 65 67 67 69 69 68 64 66 65 63 65 71 57 63
36 33 31 28 32 30 30 26 26 27 29 30 34 36 37 38 39 42 41 38 38 39 39 41 44 50 55 58 59 61 63 65 64 65 65 66 73 68 59 65 65 66 69 70 77 57 57
34 32 31 30 31 31 30 26 28 28 31 33 36 38 38 40 43 40 40 39 41 40 40 45 52 54 54 57 60 62 67 69 68 68 63 67 67 60 66 67 70 72 74 75 77 65 60
31 31 29 32 31 31 28 26 29 30 32 34 38 40 41 44 44 42 42 42 42 43 42 45 50 55 62 65 65 67 68 69 71 71 70 74 72 73 75 74 74 77 77 79 79 75 74
30 32 29 30 31 27 24 26 29 31 33 36 39 42 44 45 45 42 40 39 41 44 46 49 56 61 63 63 63 68 68 71 73 77 76 79 79 78 79 79 76 85 76 84 87 86 82
32 33 31 31 27 24 24 26 29 31 34 38 42 44 45 46 40 34 37 41 43 46 53 56 55 57 58 60 62 62 65 67 68 68 71 70 76 79 80 84 86 90 88 87 90 92 91
33 33 29 25 25 23 23 25 29 34 38 41 44 43 39 35 33 33 35 41 46 50 53 55 58 56 57 58 58 59 60 60 64 67 70 71 71 73 75 76 79 83 87 91 94 95 94
34 28 24 22 22 23 24 27 31 36 39 40 36 28 26 28 31 36 40 43 46 51 53 57 59 58 56 55 52 51 51 53 55 59 62 65 68 70 72 73 77 78 81 83 86 89 89
31 21 20 20 20 21 25 28 30 29 25 21 18 22 26 31 34 36 40 44 49 52 54 55 54 54 53 52 49 46 44 45 47 50 54 58 61 63 66 68 72 75 76 78 81 85 87
22 18 18 17 18 21 23 22 22 19 17 18 21 25 27 29 32 36 40 45 49 51 51 48 50 48 46 44 39 35 33 33 34 35 38 41 46 50 54 58 62 67 70 73 75 80 81
19 16 16 17 18 19 19 19 17 17 18 21 23 23 25 28 30 35 38 41 45 46 46 46 48 44 39 33 28 25 23 22 23 24 25 28 30 34 38 42 47 52 56 59 64 67 70
18 17 18 17 18 17 18 18 17 17 19 19 20 20 21 24 29 31 35 39 42 43 46 49 46 39 32 27 24 19 16 15 16 16 16 18 20 23 25 28 31 34 38 44 49 50 52
19 19 17 18 16 15 18 17 17 17 16 15 15 16 20 23 27 31 34 39 42 45 49 49 45 36 29 26 22 19 18 14 12 12 11 12 12 13 14 14 18 22 25 32 36 37 38
20 18 17 16 16 18 16 14 12 11 10 10 12 15 18 23 28 31 36 41 42 46 49 49 48 41 33 27 22 18 17 14 12 12 10 10 11 13 15 17 19 22 24 29 32 33 31
18 17 16 14 15 14 9 6 5 5 7 10 12 16 20 25 29 33 37 42 45 49 52 50 52 53 44 35 25 18 14 13 16 15 16 17 17 15 14 15 16 17 14 22 27 27 25
18 16 12 13 11 4 3 3 3 7 11 11 13 16 20 26 30 34 39 43 48 48 53 57 56 59 54 41 31 26 19 15 18 24 25 24 24 22 21 20 19 18 14 16 22 23 25
14 13 13 9 5 2 0 3 6 8 9 12 15 18 23 27 33 36 40 44 48 53 55 57 60 60 58 55 41 32 28 26 26 27 28 27 29 29 26 24 23 20 17 12 18 22 25
14 13 10 8 5 3 2 3 6 7 11 16 20 24 28 30 33 37 40 43 46 50 55 56 54 55 56 56 54 48 42 35 30 28 28 27 26 27 29 29 24 21 13 11 12 18 22
15 12 12 8 6 3 3 1 7 11 13 17 20 24 28 32 35 36 38 42 47 48 50 54 55 53 49 51 49 48 46 40 35 31 31 32 37 43 43 34 23 19 9 6 9 14 19
16 15 11 9 7 6 2 1 5 10 13 16 19 22 26 27 32 36 38 38 43 47 49 49 51 55 56 51 46 44 43 39 38 39 39 39 41 44 45 42 32 22 13 8 12 15 17
16 13 11 9 7 6 6 6 7 10 14 17 18 19 23 22 26 32 36 38 40 42 45 49 50 50 52 53 53 48 45 43 40 40 40 42 44 46 46 41 32 22 20 19 16 18 20
15 12 12 10 9 9 11 14 16 18 19 19 22 21 24 23 23 29 32 35 36 37 39 43 46 47 48 48 49 50 49 46 45 46 46 45 44 44 44 42 40 38 36 33 31 28 26
14 12 12 13 14 16 17 19 19 20 20 22 24 25 26 30 29 32 34 34 36 34 36 40 42 44 44 45 46 47 48 48 48 47 46 45 45 43 41 40 39 36 33 31 27 26 28
18 17 18 20 21 23 25 26 27 26 24 21 26 30 30 29 27 27 32 31 33 35 34 35 38 39 40 40 41 42 44 45 46 46 46 44 43 42 42 44 42 38 36 36 35 34 33
Wind_Direction
264 270 273 276 279 279 275 278 280 273 267 270 273 276 278 281 283 287 291 295 292 275 265 258 260 264 265 254 250 247 259 254 248 250 247 249 246 248 252 247 245 242 241 245 250 249 253
263 267 271 275 277 275 276 280 277 273 268 271 273 282 285 287 289 288 292 297 288 271 263 264 260 262 265 257 251 248 256 252 249 251 245 244 245 246 248 254 251 251 250 251 253 254 255
263 264 269 271 275 276 279 279 282 273 271 275 278 283 288 290 290 291 294 295 287 267 260 259 259 252 255 266 262 249 253 253 250 250 250 248 248 241 249 252 259 250 251 257 256 259 259
259 264 266 268 276 278 282 280 278 271 274 279 283 287 289 290 291 293 296 296 289 276 265 256 255 254 256 251 258 261 261 255 256 253 257 254 260 264 265 264 266 263 263 258 256 255 256
257 260 261 264 274 281 279 280 274 272 277 279 285 287 287 288 291 294 296 295 290 281 275 259 255 251 253 253 252 254 255 259 259 261 261 262 265 265 266 266 269 268 265 266 262 261 259
257 255 262 267 272 279 276 278 274 275 279 280 288 287 286 286 291 295 294 289 284 281 275 270 256 256 255 257 256 255 257 259 260 260 262 264 265 265 266 269 268 266 265 263 261 257 264
253 257 264 272 275 269 273 274 273 277 285 286 290 292 291 291 294 297 294 288 283 281 274 268 268 261 258 259 256 257 257 257 259 260 260 262 262 265 265 262 264 261 261 260 264 254 257
251 260 266 269 276 272 272 271 273 281 285 286 292 292 290 291 294 293 292 288 287 281 277 270 261 262 264 265 263 262 262 260 260 259 258 257 257 258 259 260 261 259 256 255 260 261 254
254 263 270 274 269 271 272 271 276 282 289 288 289 290 292 295 295 294 293 289 283 281 280 276 270 268 264 263 262 262 261 262 262 261 260 258 259 259 260 259 260 258 259 260 260 259 255
255 265 270 270 266 272 273 274 278 285 288 288 291 292 294 294 295 295 293 289 286 284 281 274 272 273 275 276 275 270 271 268 266 267 264 262 261 259 258 259 257 257 257 260 258 259 257
255 266 271 268 270 272 273 277 281 285 289 292 292 293 294 295 296 292 290 291 288 284 284 283 283 287 288 287 285 281 277 275 272 267 266 264 262 261 260 258 257 258 257 257 260 261 259
257 267 268 265 268 272 273 279 285 288 291 291 291 293 294 294 297 297 296 295 295 293 294 298 299 300 296 291 287 282 277 273 270 268 267 266 263 262 261 259 258 257 258 259 259 260 262
262 264 265 265 270 272 278 284 288 291 290 290 291 294 300 301 303 302 300 301 300 301 305 305 308 306 303 297 291 284 278 272 268 265 263 262 262 261 260 260 260 260 260 260 260 260 260
259 259 262 262 267 274 282 288 291 292 294 293 297 297 299 303 305 305 307 307 308 310 312 316 313 311 308 304 299 292 284 278 272 268 265 263 261 260 261 260 261 263 262 262 262 263 262
254 253 253 263 269 276 285 286 294 297 299 298 300 304 308 311 312 313 314 314 314 318 319 322 320 319 314 309 304 298 291 285 278 272 267 265 263 262 261 261 262 262 263 264 264 265 266
240 243 245 257 268 280 282 290 292 298 296 299 308 314 317 317 319 320 320 322 323 326 330 333 331 328 323 320 320 314 309 302 291 283 276 272 269 266 264 262 262 263 265 266 266 267 269
229 232 246 259 269 276 285 288 297 300 300 308 318 324 326 325 326 330 331 335 338 340 345 345 343 339 336 336 335 336 335 321 307 298 288 278 274 272 272 271 270 270 270 271 273 274 274
226 234 249 258 276 279 289 293 302 302 310 322 332 335 332 332 335 338 343 348 349 351 355 355 355 353 349 351 351 358 352 342 332 322 308 296 285 282 281 285 286 287 292 288 285 287 285
226 240 255 266 275 278 289 302 304 315 327 343 340 338 342 344 348 351 353 358 359 359 3 6 13 12 4 357 349 356 353 359 10 352 340 340 323 325 316 320 312 315 314 310 309 306 306
239 258 261 263 271 281 296 311 335 348 354 349 345 348 353 354 358 2 4 9 7 7 7 15 21 20 13 5 2 3 8 29 28 15 8 0 355 347 328 313 304 307 333 335 329 330 328
255 258 248 254 275 271 298 324 349 351 0 0 354 357 2 8 6 10 12 15 14 15 12 14 20 26 23 21 26 21 20 37 41 28 21 13 3 355 349 338 328 319 324 348 350 352 0
243 233 239 244 213 190 246 353 351 7 10 9 359 3 9 12 11 14 17 19 19 19 19 17 19 22 24 30 30 34 35 35 33 34 26 14 4 360 351 340 331 321 323 340 5 8 16
224 222 223 195 187 171 14 1 12 5 359 7 13 14 14 12 12 13 18 17 20 22 21 22 21 20 24 25 29 34 36 35 33 31 30 28 16 356 343 337 322 311 312 318 7 6 16
214 197 188 187 183 186 342 354 10 3 6 6 10 11 11 14 13 11 11 17 19 19 21 22 23 25 25 27 29 30 33 37 39 38 32 23 14 6 5 358 348 331 315 317 12 4 7
183 184 189 194 204 198 197 347 3 1 357 351 351 354 355 3 9 10 8 8 14 18 19 19 21 22 25 27 27 28 29 31 32 31 28 25 20 16 18 19 21 28 26 24 25 12 2
177 180 183 193 196 220 244 284 301 313 322 332 339 337 335 348 2 5 3 5 7 10 15 16 17 18 19 21 23 24 24 24 23 23 23 24 25 25 26 26 23 36 39 39 21 9 1
174 184 203 218 242 258 275 283 290 299 302 312 316 324 331 329 344 352 354 357 357 2 3 7 10 13 16 18 18 19 20 19 17 18 19 20 22 24 27 32 40 45 45 45 44 41 41
201 218 234 249 264 275 281 286 287 293 302 309 322 330 328 329 336 337 340 342 342 346 354 355 359 3 6 9 13 14 13 14 16 14 13 12 13 16 19 22 27 32 34 35 37 37 38
222 236 249 261 268 273 279 285 287 283 294 299 304 305 308 314 320 325 331 337 342 337 340 344 346 350 355 359 1 6 10 9 10 10 11 10 8 9 10 12 15 18 21 24 25 27 28
Height
10687 10691 10694 10696 10697 10697 10697 10696 10695 10694 10693 10693 10694 10694 10694 10693 10692 10690 10689 10688 10686 10684 10684 10685 10686 10686 10687 10687 10688 10688 10689 10691 10693 10695 10696 10698 10700 10701 10703 10704 10705 10709 10714 10711 10712 10717 10719
10683 10686 10688 10691 10692 10692 10692 10691 10690 10688 10688 10688 10688 10688 10688 10687 10685 10684 10682 10681 10679 10678 10678 10679 10679 10680 10680 10681 10681 10682 10683 10684 10685 10687 10688 10687 10688 10690 10692 10691 10694 10697 10698 10700 10704 10708 10706
10677 10681 10684 10686 10686 10686 10687 10686 10684 10682 10682 10683 10684 10683 10682 10680 10679 10678 10676 10674 10672 10670 10670 10670 10671 10672 10672 10674 10675 10673 10674 10674 10676 10676 10676 10677 10677 10681 10679 10683 10678 10684 10686 10687 10692 10695 10694
10673 10677 10679 10681 10681 10682 10682 10681 10679 10678 10678 10678 10679 10678 10676 10675 10673 10671 10668 10666 10665 10663 10663 10663 10663 10663 10662 10663 10664 10663 10662 10663 10664 10664 10665 10665 10665 10667 10668 10671 10667 10672 10673 10676 10674 10682 10684
10669 10672 10674 10676 10677 10677 10677 10676 10675 10674 10674 10674 10674 10673 10672 10669 10667 10664 10661 10658 10656 10654 10654 10653 10653 10653 10651 10653 10653 10652 10652 10651 10651 10651 10651 10650 10651 10651 10652 10655 10654 10655 10657 10658 10664 10662 10672
10665 10668 10670 10671 10672 10672 10671 10671 10670 10669 10669 10670 10669 10668 10666 10663 10661 10658 10655 10651 10649 10646 10645 10643 10642 10643 10640 10639 10639 10639 10638 10638 10637 10637 10637 10636 10634 10634 10639 10646 10640 10642 10641 10638 10632 10659 10652
10661 10663 10665 10667 10667 10667 10666 10666 10666 10665 10665 10665 10664 10662 10660 10656 10653 10650 10647 10644 10642 10638 10636 10634 10631 10628 10628 10625 10625 10621 10623 10622 10621 10619 10622 10621 10616 10625 10631 10621 10625 10626 10625 10624 10606 10647 10644
10657 10660 10662 10663 10663 10662 10661 10662 10662 10662 10661 10660 10658 10656 10653 10650 10647 10642 10638 10635 10632 10629 10626 10622 10618 10615 10613 10611 10609 10608 10605 10604 10604 10602 10607 10602 10601 10613 10606 10607 10608 10609 10607 10606 10601 10622 10633
10654 10656 10659 10660 10658 10657 10658 10658 10658 10657 10657 10655 10652 10650 10647 10642 10638 10633 10629 10625 10621 10618 10617 10610 10604 10599 10596 10592 10591 10589 10588 10586 10584 10583 10586 10583 10590 10586 10586 10591 10593 10585 10589 10590 10594 10600 10604
10650 10653 10656 10654 10653 10654 10654 10654 10654 10653 10652 10650 10647 10643 10640 10634 10630 10624 10619 10615 10611 10606 10603 10599 10590 10583 10578 10577 10576 10571 10569 10567 10564 10561 10565 10562 10567 10570 10568 10566 10572 10559 10580 10568 10568 10572 10582
10647 10651 10651 10649 10650 10650 10650 10650 10649 10648 10647 10644 10640 10636 10631 10625 10621 10617 10612 10607 10602 10595 10587 10580 10578 10573 10568 10562 10556 10552 10547 10542 10539 10540 10538 10541 10541 10541 10545 10545 10546 10544 10548 10551 10546 10548 10552
10645 10647 10646 10646 10646 10647 10647 10647 10645 10644 10641 10638 10633 10628 10623 10619 10614 10610 10605 10599 10592 10585 10575 10569 10561 10555 10548 10540 10532 10526 10522 10520 10517 10515 10513 10514 10517 10517 10518 10520 10521 10523 10525 10526 10525 10525 10530
10642 10643 10642 10642 10643 10644 10644 10643 10641 10638 10635 10630 10625 10621 10618 10613 10609 10604 10598 10591 10583 10574 10568 10556 10547 10536 10526 10517 10509 10504 10500 10497 10495 10494 10493 10493 10493 10495 10497 10499 10497 10500 10501 10504 10503 10501 10506
10638 10639 10639 10640 10641 10641 10640 10639 10637 10633 10629 10624 10621 10618 10614 10609 10604 10598 10590 10583 10574 10566 10555 10545 10532 10519 10508 10498 10490 10484 10479 10477 10476 10474 10473 10473 10474 10476 10477 10480 10479 10478 10480 10480 10479 10476 10475
10635 10635 10637 10637 10638 10638 10637 10635 10632 10629 10625 10621 10618 10614 10610 10605 10599 10592 10585 10577 10565 10556 10546 10534 10519 10505 10493 10482 10474 10469 10465 10462 10460 10459 10458 10458 10458 10459 10460 10461 10462 10461 10459 10458 10458 10453 10452
10631 10633 10635 10636 10636 10635 10634 10632 10629 10625 10622 10618 10615 10611 10606 10601 10595 10589 10581 10571 10560 10548 10536 10522 10508 10494 10481 10472 10465 10460 10456 10453 10450 10449 10448 10447 10446 10446 10447 10447 10446 10445 10444 10442 10438 10437 10433
10629 10632 10633 10633 10633 10632 10631 10628 10625 10622 10619 10615 10612 10608 10604 10598 10593 10586 10577 10566 10554 10541 10529 10514 10499 10485 10474 10466 10460 10456 10452 10449 10446 10444 10443 10441 10441 10440 10440 10438 10437 10435 10432 10427 10423 10421 10418
10628 10629 10630 10630 10630 10629 10627 10624 10622 10619 10616 10613 10610 10607 10602 10597 10592 10583 10573 10562 10551 10537 10524 10509 10493 10480 10470 10464 10459 10455 10451 10447 10445 10442 10441 10440 10438 10437 10435 10433 10430 10427 10423 10416 10414 10409 10403
10626 10627 10628 10628 10628 10627 10624 10621 10619 10617 10615 10612 10609 10606 10601 10596 10589 10581 10571 10560 10549 10536 10524 10509 10493 10479 10470 10464 10459 10454 10451 10448 10445 10443 10441 10440 10437 10434 10431 10427 10423 10420 10416 10409 10403 10396 10391
10625 10625 10626 10626 10626 10624 10622 10620 10618 10616 10614 10611 10609 10606 10601 10595 10588 10580 10571 10561 10549 10535 10523 10512 10497 10483 10473 10465 10459 10455 10451 10449 10448 10446 10444 10441 10438 10435 10432 10427 10422 10417 10413 10406 10398 10391 10384
10623 10623 10624 10625 10624 10623 10621 10620 10618 10617 10615 10612 10609 10605 10601 10595 10588 10580 10571 10561 10551 10541 10526 10512 10501 10488 10478 10469 10463 10459 10455 10451 10451 10449 10446 10443 10441 10436 10431 10425 10419 10414 10409 10403 10397 10388 10381
10620 10622 10623 10623 10623 10622 10621 10620 10619 10617 10615 10613 10610 10606 10600 10595 10588 10580 10572 10564 10554 10543 10531 10518 10506 10497 10489 10479 10471 10465 10462 10458 10455 10452 10449 10447 10442 10437 10430 10423 10416 10411 10406 10400 10395 10389 10381
10619 10621 10621 10622 10623 10622 10621 10620 10619 10617 10615 10614 10610 10606 10601 10595 10589 10582 10575 10567 10558 10547 10537 10527 10517 10508 10497 10488 10480 10474 10468 10463 10460 10457 10455 10452 10447 10439 10430 10419 10411 10404 10401 10398 10394 10389 10382
10617 10618 10620 10621 10622 10622 10622 10621 10619 10618 10615 10613 10610 10606 10601 10596 10590 10584 10577 10569 10561 10552 10543 10534 10526 10517 10509 10499 10493 10485 10478 10474 10470 10467 10462 10456 10448 10437 10426 10414 10405 10398 10396 10396 10393 10390 10384
10615 10617 10618 10620 10620 10621 10620 10620 10618 10617 10615 10612 10609 10605 10601 10596 10591 10585 10578 10571 10565 10556 10548 10542 10533 10525 10516 10508 10501 10494 10490 10486 10480 10474 10468 10461 10452 10440 10427 10414 10406 10400 10400 10398 10396 10392 10386
10615 10616 10618 10619 10620 10620 10619 10618 10617 10615 10613 10610 10607 10604 10600 10596 10590 10585 10580 10574 10567 10561 10553 10545 10539 10530 10523 10516 10511 10504 10499 10492 10486 10480 10473 10464 10455 10446 10435 10425 10417 10411 10407 10404 10400 10395 10390
10616 10617 10618 10619 10619 10618 10618 10616 10614 10612 10610 10607 10604 10602 10598 10594 10590 10585 10580 10575 10570 10563 10557 10550 10543 10537 10530 10523 10516 10510 10504 10496 10490 10483 10477 10470 10462 10455 10448 10438 10430 10422 10416 10411 10405 10401 10395
10615 10617 10617 10617 10616 10615 10614 10612 10611 10609 10607 10604 10602 10598 10596 10592 10588 10585 10580 10575 10570 10564 10558 10552 10547 10540 10534 10527 10521 10514 10508 10501 10494 10487 10480 10473 10467 10461 10456 10448 10440 10431 10425 10419 10414 10407 10400
10614 10614 10614 10614 10613 10612 10610 10609 10607 10605 10603 10600 10598 10595 10592 10589 10585 10582 10578 10574 10569 10563 10557 10553 10548 10542 10537 10531 10525 10519 10512 10505 10498 10492 10484 10477 10471 10464 10456 10449 10443 10437 10431 10425 10418 10411 10405